Find Yaogan 36 02 zu 01 xing

NORAD ID: 54042 Int'l Des: 2022-133 Owner: ZZB Country: CN Constellation: yaogan operational
LEOCIRCULAR

Live Position

Loading 3D Globe...

About Yaogan 36 02 zu 01 xing

Description loading...

Upcoming Passes

Passes for default location (London). Set your location on the main map for personalized predictions.

Altitude History

Loading altitude history...

Two-Line Element Set

1 54042U 22133A 26104.85947936 .00005987 00000-0 24939-3 0 9999
2 54042 35.0056 158.0215 0028532 343.5602 16.4186 15.22691087195092
Epoch: Apr 14, 2026 • Age: 4 hours

Current Status

Altitude 509.7 km
Velocity 7.61 km/s
Sub-Earth Point -30.34°S, 177.46°E
Launch Date Oct 14, 2022
Age 3.5 years
Type military

Technical Details

Classification Payload
Mass 300.00 kg
Dry Mass 300.00 kg
Total Mass 300.00 kg
Length 2.50 m
Diameter 2.50 m
Span 5.00 m
Shape Box + 2 Pan
Manufacturer DFHZ
Phase Status In Orbit
Owner/State ZZB/CN

Most Searched